SCP
0 0 0 0 0 0 0 0 1 0 0 0 0 0 0 0 0 0 0 0 0 0 1 1 1 1 2 4 5 6 7 6 4 3 3 3 3 2 2 1 1 1 1
0 0 0 0 0 0 0 0 0 0 0 0 0 0 0 0 0 0 0 0 0 0 0 1 1 1 1 2 4 5 5 5 3 3 3 3 3 2 1 1 1 1 1
0 0 0 0 0 0 0 0 0 0 0 0 0 0 0 0 0 0 1 1 0 0 0 0 0 0 1 1 2 3 3 3 3 2 2 2 2 2 1 1 1 1 1
0 0 0 0 0 0 0 0 0 0 0 0 0 0 0 0 0 1 1 1 1 0 0 0 0 0 1 1 1 1 2 2 2 2 2 1 1 1 1 1 1 1 1
0 0 0 0 0 0 0 0 0 0 0 1 1 0 0 0 1 1 1 1 1 1 0 0 0 0 1 1 1 1 1 1 1 1 1 1 1 1 1 1 1 1 1
0 0 0 0 0 0 0 1 1 1 1 1 1 1 0 0 1 1 2 2 1 1 0 0 0 0 1 1 1 1 1 1 1 1 1 1 1 1 1 1 1 1 1
0 0 0 0 0 0 0 1 1 1 1 1 1 1 1 1 1 2 2 2 1 1 0 0 0 0 0 0 1 1 0 0 0 1 1 1 1 1 1 1 1 1 1
0 0 0 0 0 0 0 1 1 1 1 1 1 1 1 2 2 2 2 2 1 1 0 0 0 0 0 0 0 0 0 0 0 0 0 0 0 1 1 1 1 1 1
0 0 0 0 0 0 0 0 1 1 1 1 1 1 2 2 2 2 2 2 1 1 1 0 0 0 0 0 0 0 0 0 0 0 0 0 0 1 1 1 0 0 0
0 0 0 0 0 0 0 0 0 0 0 1 1 1 2 3 3 2 2 2 1 1 1 0 0 0 0 0 0 0 0 0 0 0 0 0 1 1 1 1 0 0 0
0 0 0 0 0 0 0 0 0 0 0 1 1 2 3 3 3 2 2 1 1 1 0 0 0 0 0 0 0 0 0 0 0 0 0 1 1 1 1 1 1 1 1
0 0 0 0 0 0 0 0 0 0 0 0 1 2 2 3 2 2 1 1 1 1 0 0 0 0 0 0 0 0 0 0 0 0 0 1 1 1 1 1 1 1 1
0 0 0 0 0 0 0 0 0 0 0 0 0 1 1 1 1 1 1 1 1 0 0 0 0 0 0 0 0 0 0 0 0 0 0 0 1 1 1 1 1 1 1
0 0 0 0 0 0 0 0 0 0 0 0 0 0 1 1 1 1 1 0 0 0 0 0 0 0 0 0 0 0 0 0 0 0 0 0 0 1 1 1 1 1 1
0 0 0 0 0 0 0 0 0 0 0 0 0 0 0 0 0 0 0 1 1 0 0 0 0 0 0 0 0 0 0 0 0 0 0 0 0 1 1 1 1 1 1
0 0 0 0 0 0 0 0 0 0 0 0 0 0 0 0 0 0 0 1 1 1 1 0 0 0 0 0 0 0 0 0 0 0 0 0 0 0 1 1 1 1 1
0 0 0 0 0 0 0 0 0 0 0 0 0 0 0 0 0 0 1 1 1 1 1 1 1 1 1 1 0 0 0 0 0 0 0 0 0 0 0 0 0 0 0
1 1 1 0 1 1 1 1 1 0 0 0 0 0 0 0 0 0 1 1 1 1 1 1 1 1 1 1 1 1 0 0 0 0 0 0 0 0 0 0 0 0 0
1 1 1 1 1 1 1 1 1 0 0 0 0 0 0 0 0 0 1 1 1 1 1 1 1 1 1 1 1 1 1 0 0 0 0 0 0 0 0 0 0 0 0
1 1 1 1 1 1 1 1 1 1 0 0 0 0 0 0 0 0 0 1 1 1 1 1 1 1 1 1 1 1 1 0 0 0 0 0 0 0 0 0 0 0 0
1 1 0 0 0 0 0 0 0 0 0 0 0 0 0 0 0 0 0 1 1 1 1 1 1 1 1 1 1 1 0 0 0 0 1 1 0 0 0 0 0 0 0
0 0 0 0 0 0 0 0 0 0 0 0 0 0 0 0 0 0 0 1 1 1 1 1 1 1 1 1 1 1 1 0 0 0 1 1 1 0 0 0 0 0 0
1 1 0 0 0 0 0 0 0 0 0 0 0 0 0 0 0 0 0 0 1 1 1 1 1 1 1 1 1 1 1 1 0 1 1 1 1 0 0 0 0 0 0
1 1 1 1 1 1 1 1 0 0 0 0 0 0 0 0 0 0 0 0 0 1 1 1 1 1 1 1 1 1 1 1 1 1 1 1 1 1 1 0 0 0 0
1 1 2 2 2 1 1 1 1 1 0 0 0 0 0 0 0 0 0 0 0 0 0 1 1 1 1 1 1 1 1 1 0 0 1 1 1 1 1 1 0 0 0
1 2 2 2 2 2 2 1 1 1 0 0 0 0 0 0 0 0 0 0 0 0 0 1 1 1 1 1 1 1 1 1 0 0 1 1 1 1 1 1 1 0 0
Wind_Speed
3 4 6 4 5 6 6 6 7 7 7 7 7 7 7 8 7 7 8 7 8 8 8 8 9 9 9 9 8 9 9 8 8 8 7 6 6 6 6 5 3 4 6
4 5 6 5 6 6 6 6 6 7 7 7 7 7 7 7 7 8 8 8 8 9 8 8 9 9 9 9 8 8 8 8 8 7 6 7 7 6 6 5 3 4 5
4 5 6 6 6 7 6 6 6 7 7 7 7 7 7 7 7 8 8 8 9 9 8 8 8 9 9 9 9 8 8 7 7 5 3 4 7 7 6 5 5 5 4
5 5 6 7 6 6 6 6 6 7 7 7 7 7 7 7 7 8 8 8 9 9 8 8 8 9 9 9 9 8 7 7 6 2 3 5 5 7 5 5 4 4 4
5 5 7 6 6 6 6 6 7 6 7 7 7 7 8 7 8 8 9 9 9 9 9 8 8 8 8 8 8 8 8 8 5 3 5 5 6 7 6 5 5 5 4
6 5 7 6 6 6 6 6 7 7 7 7 7 8 8 8 8 9 9 10 10 10 9 9 8 8 8 8 8 8 8 6 3 5 5 5 5 7 6 6 5 4 4
6 6 7 6 6 6 7 8 8 8 8 8 8 8 8 9 9 9 9 10 10 10 10 9 9 9 9 8 8 8 7 5 4 5 4 5 6 7 6 6 5 4 4
5 5 6 7 6 7 7 8 9 9 9 8 7 8 8 9 9 9 9 9 10 10 10 10 9 9 8 8 8 7 6 3 4 5 5 5 7 7 6 6 6 5 6
5 5 5 5 6 7 7 8 8 8 8 7 7 7 8 9 9 9 9 9 9 10 10 10 10 9 9 8 7 7 6 3 4 4 4 5 7 6 6 6 6 6 6
5 4 4 5 5 5 6 8 7 8 8 7 6 7 7 8 9 8 8 9 9 9 9 9 9 9 8 8 7 6 4 1 5 5 4 6 7 6 6 6 7 7 7
4 4 4 5 5 5 6 6 5 6 6 4 7 8 5 5 6 6 10 9 9 8 8 8 8 8 7 7 7 4 1 3 5 5 5 8 7 7 6 7 7 7 7
5 4 4 4 4 5 4 4 3 4 4 4 6 6 4 4 5 5 8 7 7 7 7 7 6 5 2 4 5 2 3 5 4 4 6 9 8 7 7 6 7 7 7
5 4 4 4 4 4 3 3 2 3 3 4 5 5 4 4 3 3 3 4 4 3 4 4 3 3 4 4 3 4 5 4 3 4 6 8 7 7 7 7 7 8 8
5 4 4 4 4 3 3 3 2 2 3 3 4 5 3 3 3 3 3 3 2 2 2 3 2 4 4 4 4 5 5 3 4 3 5 7 7 7 8 8 8 8 8
5 4 4 3 3 3 4 3 2 3 3 4 3 3 4 2 3 3 3 3 3 2 2 2 2 4 4 4 4 4 4 5 4 4 4 8 7 7 7 7 7 8 8
5 5 4 3 3 3 3 3 3 3 2 3 3 3 3 3 2 2 3 3 3 2 2 2 2 2 2 3 4 4 4 4 4 4 3 5 7 7 6 7 7 7 6
5 5 5 3 3 3 3 3 2 2 2 2 2 2 3 3 2 2 2 2 2 2 2 2 3 2 2 2 3 3 3 3 3 3 3 2 3 6 6 7 7 6 6
5 5 5 3 3 3 3 3 2 2 2 2 2 2 3 3 3 2 2 2 2 2 2 2 2 1 2 2 2 2 2 2 2 3 2 2 2 3 5 7 6 6 6
5 5 5 4 3 3 3 3 2 3 2 2 2 2 2 3 2 2 2 2 2 2 2 1 2 1 2 2 1 1 1 2 2 2 2 3 3 2 3 4 5 5 6
5 5 5 5 3 4 3 2 3 2 2 2 2 2 3 2 2 2 1 2 2 1 1 1 1 1 1 1 1 1 1 1 1 2 2 2 2 3 3 2 2 3 4
6 5 5 4 4 3 2 2 2 2 1 1 1 2 2 2 2 2 1 2 2 1 1 1 1 1 0 1 0 0 0 1 1 1 1 1 2 2 2 2 2 2 2
6 5 5 4 4 3 2 1 1 1 1 1 1 1 1 1 2 1 1 1 1 1 1 1 0 1 1 1 2 2 1 1 1 1 0 1 1 1 2 2 2 2 1
7 6 4 4 4 3 3 2 2 2 2 2 1 1 1 1 1 1 1 1 1 1 1 1 1 1 1 1 2 3 2 1 0 1 1 1 1 1 1 2 2 2 2
6 5 5 4 4 4 4 3 3 2 1 1 1 1 1 0 0 0 1 1 1 1 1 1 2 2 2 1 1 2 3 3 3 1 1 0 0 1 1 1 2 2 2
7 6 5 5 4 4 4 3 3 2 1 1 1 1 1 0 0 0 1 1 1 1 1 1 2 2 2 2 2 1 1 2 4 3 2 1 1 0 1 1 1 1 2
6 6 5 5 4 4 4 4 4 3 2 2 2 1 1 1 0 0 1 1 1 1 1 1 1 2 2 2 2 2 2 2 2 3 3 2 1 1 1 0 1 1 1
Wind_Direction
99 83 85 78 77 76 76 73 73 76 75 73 72 74 77 79 77 79 79 77 73 72 72 73 72 72 73 77 85 93 95 100 101 102 102 100 98 96 97 102 123 113 98
95 88 92 79 81 81 81 79 75 76 75 74 72 72 76 80 80 79 80 77 73 71 71 71 71 72 75 74 80 88 91 96 96 99 110 115 102 95 92 88 65 74 94
94 92 100 82 81 79 77 77 75 75 75 75 72 71 75 78 81 79 78 78 76 72 72 70 72 74 75 74 73 82 88 91 94 102 133 114 106 95 92 88 76 75 82
89 85 79 80 77 74 73 74 71 70 70 73 75 73 73 76 78 77 76 78 76 75 74 73 72 72 72 73 74 77 86 87 86 106 101 83 89 88 85 82 77 77 78
88 84 82 77 72 70 70 71 69 68 68 70 74 76 74 74 75 75 75 76 74 73 73 75 75 72 72 74 75 76 79 80 78 73 70 70 74 75 75 74 71 70 73
90 83 83 72 71 73 72 69 65 72 76 74 70 73 76 76 75 76 76 73 71 71 73 74 72 70 72 74 75 74 74 75 80 68 67 70 74 72 68 67 64 63 62
91 83 85 73 73 71 73 68 66 74 79 77 72 73 76 76 76 79 80 76 72 68 67 69 69 70 70 72 76 73 73 65 65 70 68 68 67 68 66 61 60 62 64
92 88 92 90 80 73 69 66 66 71 74 74 76 78 79 77 78 82 82 80 75 72 68 65 66 69 70 73 75 73 65 37 77 72 66 66 63 64 65 63 58 55 60
95 90 88 93 98 92 73 64 64 66 68 69 81 86 87 83 82 81 80 80 79 77 71 67 65 67 68 71 73 76 72 38 61 67 67 64 60 63 66 69 60 53 52
96 89 83 81 81 87 89 75 66 64 60 61 82 95 101 106 100 91 89 77 76 78 75 71 67 67 68 69 73 75 73 53 64 68 59 61 61 60 64 66 62 56 52
87 81 78 77 74 72 74 83 86 78 61 71 106 108 119 103 99 101 74 73 72 73 74 74 74 75 80 85 79 76 76 60 62 61 58 50 53 58 64 66 65 57 56
94 78 73 73 73 76 71 78 75 74 68 64 86 95 89 83 77 78 95 85 79 81 88 77 79 97 92 88 101 129 70 67 62 64 64 52 51 57 64 65 66 61 59
106 93 80 78 78 76 80 68 70 69 62 57 62 75 79 82 92 87 94 109 104 107 92 101 114 73 67 67 59 63 56 53 56 56 63 55 51 52 62 66 64 61 59
107 101 94 86 87 81 80 75 71 71 67 64 55 62 71 69 64 71 66 64 66 67 67 66 62 72 64 66 69 68 67 58 56 59 66 58 56 59 62 67 65 58 55
121 117 107 96 92 90 89 81 77 67 60 71 56 51 66 69 71 71 76 64 58 56 68 67 64 65 57 55 60 61 60 62 59 60 71 66 55 56 59 60 62 57 55
131 127 117 112 97 93 96 99 84 77 76 67 62 43 57 66 67 65 64 60 48 44 42 54 66 60 56 51 52 53 50 53 57 60 66 83 74 60 55 54 53 53 52
135 131 122 116 108 101 93 85 85 91 88 73 64 43 50 54 60 64 50 53 45 38 48 45 60 45 60 66 62 53 51 37 45 54 60 58 81 85 65 53 48 43 46
140 133 125 125 126 111 99 92 92 86 78 76 67 49 48 52 56 55 47 43 40 32 32 43 37 45 63 61 47 38 40 38 30 31 46 64 59 63 82 65 48 41 44
147 139 134 132 131 122 115 112 92 91 81 72 67 59 47 51 49 62 43 27 41 33 33 33 37 25 46 53 51 47 32 28 18 7 38 50 60 60 65 87 72 52 46
153 149 142 133 139 132 132 125 106 99 90 79 69 63 52 36 38 48 48 34 33 32 35 36 52 41 34 26 17 35 33 50 25 13 7 41 50 50 46 46 75 81 61
161 159 148 149 141 139 139 144 131 124 110 104 92 88 81 61 39 42 25 37 24 27 19 21 57 72 51 4 343 44 124 79 53 50 348 359 62 56 51 43 38 35 90
166 163 160 161 151 151 143 144 149 140 136 99 99 92 76 62 52 38 35 37 38 23 2 1 358 311 351 315 299 283 234 167 104 52 33 357 26 49 40 36 38 37 28
176 169 168 169 161 161 164 163 154 146 156 144 145 123 80 60 54 46 36 32 26 334 304 290 266 266 283 296 318 309 301 319 45 135 70 42 41 28 30 23 15 16 34
180 174 177 176 171 167 175 181 182 188 179 164 164 135 136 109 61 358 351 347 337 321 303 277 269 268 270 271 283 315 320 329 292 240 176 139 51 360 2 5 4 9 15
179 176 178 174 172 173 182 181 205 198 183 169 170 158 168 131 217 270 287 289 297 292 295 296 283 270 261 273 274 276 295 289 283 281 268 231 200 242 320 347 358 8 18
172 170 175 178 174 175 182 184 197 190 188 174 173 160 177 155 260 353 314 286 284 289 290 287 270 263 263 263 264 261 268 273 279 279 271 261 255 241 244 236 312 1 2